Regional Weather Roundup
Issued by NWS Midland/Odessa, TX

Skip options and go directly to product.
Home | Oldest Version | Previous Version | Current Version | All | Graphics & Text | Save Text | Print | Product List | Glossary On

Skip product version selection by date and time.   
717
ASUS44 KMAF 250110
RWRMAF
MIDLAND AREA WEATHER ROUNDUP
NATIONAL WEATHER SERVICE MIDLAND TX
700 PM CST MON NOV 24 2014

...IN SOUTHWEST TEXAS AND SOUTHEAST NEW MEXICO...

CITY           SKY/WX    TMP DP  RH WIND       PRES   REMARKS
ALPINE         PTCLDY    43   7  23 W9        30.15R WCI  37
ANDREWS        FAIR      45  11  26 SE5       30.07R
ARTESIA        NOT AVBL
BIG SPRING     PTCLDY    46  29  51 E7        30.09S
CARLSBAD       MOCLDY    44  15  31 CALM      30.06R
DRYDEN           N/A     50  21  32 NE7       30.06R
FORT STOCKTON  PTCLDY    48  11  22 SE6       30.07R
GUAD PASS      PTCLDY    43  -3  14 NW8       30.12R WCI  38
HOBBS          CLEAR     46   7  19 NW12      30.07R
MARFA          PTCLDY    39   1  20 CALM      30.11R
MIDLAND AIRPK  PTCLDY    49  30  47 SE3       30.07S
MIDLAND INTL   PTCLDY    48  25  40 SE5       30.06R
ODESSA         PTCLDY    49   6  17 S6        30.06R
PECOS          CLEAR     47  12  24 E5        30.05R
PRESIDIO       FAIR      53  10  17 N3        30.07R
SEMINOLE       CLEAR     45  10  24 CALM      30.06R
SNYDER         PTCLDY    49  24  37 CALM      30.09R
WINK           PTCLDY    50   0  12 S6        30.04R
$$
...OTHER STATIONS IN TEXAS...

CITY           SKY/WX    TMP DP  RH WIND       PRES   REMARKS
ABILENE        CLEAR     47  29  49 SE7       30.09R
AMARILLO       MOCLDY    41  14  33 CALM      30.11R
AUSTIN         PTCLDY    47  33  58 N5        30.10R
BROWNSVILLE    CLEAR     58  47  66 N3        30.06R
CORPUS CHRISTI PTCLDY    59  39  47 NE9       30.08R
DALLAS FTW     PTCLDY    55  21  26 W8        30.08R
DEL RIO        CLEAR     53  34  48 CALM      30.08R
EL PASO        PTCLDY    53  -6   8 N5        30.08R
HOUSTON INT    MOCLDY    57  35  43 CALM      30.08R
LUBBOCK        CLOUDY    43  15  32 NE7       30.06R WCI  39
SAN ANGELO     MOCLDY    50  23  34 NW5       30.07R
SAN ANTONIO    PTCLDY    56  26  31 N8        30.10R
WACO           PTCLDY    44  34  67 CALM      30.10R
WICHITA FALLS  NOT AVBL
$$
...OTHER LOCATIONS IN NEW MEXICO...

CITY           SKY/WX    TMP DP  RH WIND       PRES   REMARKS
ALAMAGORDO     MOCLDY    48   5  17 MISG      30.13R
ALBUQUERQUE    PTCLDY    40   8  26 NW16G23   30.18R WCI  31
CANNON AFB     MOCLDY    35   8  33 N9        30.09R WCI  27
CLOVIS         MOCLDY    34   5  29 N13       30.09R WCI  25
HOLLOMAN AFB   MOCLDY    49   6  18 N14G23    30.13R
ROSWELL        PTCLDY    49   5  16 NW14      30.08R
RUIDOSO        MOCLDY    34   3  27 NW18G25   30.13R WCI  23
SANTA FE       MOCLDY    27  21  78 NE12      30.16R WCI  17
TRUTH OR CONSE PTCLDY    46   6  19 N20G30    30.14R WCI  38
TUCUMCARI      MOCLDY    38  21  50 NW7       30.10R WCI  33
$$

USA.gov is the U.S. government's official web portal to all federal, state and local government web resources and services.